COSMOS 1275 DEB, 12714

Orbit data source: Space-Track

COSMOS 1275 DEB, 12714 is space debris in LEO originally from a launch on Thu, 04 Jun 1981 UTC launched from the Plesetsk Missile And Space Complex (PKMTR). Debris objects in space refer to the collection of defunct objects orbiting the Earth. Examples of debris include non-operational satellites, rocket bodies, and fragments generated from explosions, collisions, or faulty payload assembly.

Loading next visibility...
Identifier
12714, 1981-053BJ
Orbit
LEO
Country
Flag of CISCIS
Related business
Manufacturer
Unknown
Mission
Spacecraft
Bus & Motor
Unknown
Mass
Unknown
Launch date (UTC)
1981-06-04 (44 years ago)
Launch vehicle
Unknown
Launch site
Plesetsk Missile And Space Complex (PKMTR)
Object type
Payload
Rocket body
Debris
Shape & HBR
Unknown shape, 0.2 m
Radar Cross Section
Medium (>0.1 m² and <1 m²)

Expand to show TLE details & history
Last TLE update: 5 hours ago

TLE from 5 hours ago
0 COSMOS 1275 DEB
1 12714U 81053BJ  25302.55049244  .00000353  00000-0  43268-3 0  9994
2 12714  82.9723 143.0842 0125094 100.5155 261.0114 13.59622456185550
Epoch: 2025-10-29T13:12Z
TLE epoch observation values (Epoch: 2025-10-29T13:12:42.546Z)
Latitude
-0.00009°
Longitude
-93.2151°
Altitude
1,055.568 km
Speed
7.316 km/s
True Right ascension
09h 32m 20s
True Declination
0° 00' 00"
Sunlit
Object was in daylight at epoch
Visualization orbit readout
Latitude
Unknown
Longitude
Unknown
Altitude
Unknown
Speed
Unknown
Apparent Right ascension
Unknown
Apparent Declination
Unknown
Sunlit
N/A
Visualization observer readout
Local Sidereal Time
13:51:17
Azimuth
Unknown
Elevation
Unknown
Doppler factor
Unknown
Orbital elements
Apogee altitude
1,126.957 km
Perigee altitude
941.509 km
Semi-major axis
7,412.37 km
Eccentricity
0.01251
Inclination
82.9723°
RAAN
143.0842°
Arg. of periapsis
100.5155°
True anomaly
259.59913°
Mean anomaly
261.0114°
Eccentric anomaly
260.3049°
Mean motion
3.40101 °/min
Orbital period
105.85 mins
BSTAR
0.00043268
Loading maneuver chart data...
Computing Atmospheric mass density...
Loading historical data...
Loading historical data...
Loading historical data...
Loading historical data...
Loading historical data...
Loading historical data...
Loading historical data...

Documentation

Showing up to 5 results
|